[[{"header":{"parameterUnit":"m.s-1","parameterCategory":1,"la1":30.2991,"la2":30.254,"lo1":-89.0895,"lo2":-89.0444,"dy":0.0017,"dx":0.0017,"nx":28,"ny":28,"refTime":"2025-12-23T09:00:00:Z","depth":0,"parameterNumber":2,"parameterNumberName":"U-component_of_WINDS"},"data":[0,0,0,0,0,0,0,0,0,0,0,0,0,0,0,0,0,0,0,0,0,0,0,0,0,0,0,0,0,0,0,0,0,0,0,0,0,0,0,0,0,0,0,0,0,0,0,0,0,0,0,0,0,0,0,0,0,0,-0.7448,-0.7447,0,-0.7408,-0.7407,-0.7407,-0.7336,-0.7335,-0.7333,-0.7332,-0.7293,-0.7293,-0.7294,0,0,0,0,0,0,0,0,0,0,0,0,0,-0.7465,-0.7465,-0.7448,-0.7447,-0.7447,-0.7408,-0.7407,-0.7407,-0.7336,-0.7335,-0.7333,-0.7332,-0.7293,-0.7293,-0.7294,0,0,0,0,0,0,0,0,0,0,0,0,0,-0.7444,-0.7465,-0.7448,-0.7407,-0.7403,-0.7408,-0.7407,-0.7407,-0.7337,-0.7335,-0.7333,-0.7331,-0.7293,-0.7293,-0.7294,-0.7336,0,0,-0.7295,-0.7295,0,0,0,0,0,0,0,0,-0.7446,-0.7444,-0.7413,-0.741,-0.7405,-0.7375,-0.7399,-0.7383,-0.7337,-0.7362,-0.7332,-0.733,-0.7322,-0.732,-0.7317,-0.7334,-0.7333,-0.7295,-0.7295,-0.7295,-0.7295,0,0,0,0,0,0,0,-0.7447,-0.7445,-0.7432,-0.7413,-0.7408,-0.7391,-0.7386,-0.7396,-0.7354,-0.736,-0.7354,-0.735,-0.732,-0.7317,-0.7316,-0.7332,-0.7295,-0.7295,-0.7295,-0.7295,-0.7382,-0.7384,0,0,0,0,0,0,-0.7454,-0.7447,-0.7433,-0.7431,-0.7421,-0.7392,-0.7387,-0.7387,-0.7354,-0.7347,-0.7352,-0.7347,-0.7317,-0.7315,-0.7314,-0.7361,-0.7295,-0.7295,-0.7296,-0.738,-0.7382,-0.7385,0,0,0,0,0,0,-0.7455,-0.7454,-0.7435,-0.7437,-0.7434,-0.7394,-0.7395,-0.7387,-0.7384,-0.7348,-0.734,-0.7357,-0.7316,-0.7313,-0.7331,-0.7359,-0.7296,-0.7296,-0.7377,-0.7381,-0.7383,-0.7456,0,0,0,0,0,0,-0.7456,-0.7454,-0.747,-0.7438,-0.7434,-0.7452,-0.7397,-0.7388,-0.7385,-0.7378,-0.7351,-0.7344,-0.7314,-0.7331,-0.7331,-0.7358,-0.7296,-0.7375,-0.7379,-0.7382,-0.7451,-0.7461,-0.747,0,0,0,0,0,-0.7456,-0.7492,-0.7471,-0.747,-0.7452,-0.7454,-0.7452,-0.7416,-0.7387,-0.7403,-0.7379,-0.7345,-0.7356,-0.7333,-0.7333,-0.736,-0.7373,-0.7378,-0.7382,-0.7447,-0.7459,-0.747,0,0,0,0,0,0,-0.7529,-0.7488,-0.7463,-0.749,-0.7476,-0.7442,-0.746,-0.743,-0.7425,-0.7418,-0.7374,-0.7369,-0.7392,-0.7378,-0.7354,-0.7399,-0.7359,-0.7364,-0.7408,-0.742,-0.7429,-0.7432,-0.7296,0,0,0,0,0,-0.7548,-0.7553,-0.7516,-0.7543,-0.7538,-0.7501,-0.75,-0.7473,-0.7457,-0.7451,-0.7429,-0.7416,-0.7416,-0.7417,-0.7415,-0.7449,-0.7442,-0.7467,-0.7477,-0.7485,-0.749,-0.7506,-0.7517,-0.74,-0.74,-0.74,0,0,-0.7588,-0.7566,-0.7571,-0.7557,-0.7543,-0.755,-0.7496,-0.7505,-0.7509,-0.7453,-0.7468,-0.7451,-0.7433,-0.7459,-0.7469,-0.7448,-0.752,-0.7491,-0.7498,-0.7498,-0.7512,-0.7523,-0.7533,-0.7403,-0.7403,-0.7402,0,0,-0.7663,-0.7647,-0.7667,-0.7654,-0.7633,-0.7608,-0.7613,-0.7584,-0.757,-0.7584,-0.7542,-0.7547,-0.7548,-0.7537,-0.7531,-0.7602,-0.757,-0.7602,-0.7652,-0.7669,-0.7678,-0.7686,-0.7711,-0.772,-0.7607,-0.7607,-0.7607,0,-0.7715,-0.7722,-0.7682,-0.7693,-0.7688,-0.7637,-0.7657,-0.7647,-0.7627,-0.7625,-0.7601,-0.7601,-0.7585,-0.7607,-0.7624,-0.7622,-0.7626,-0.7605,-0.768,-0.7687,-0.7694,-0.7717,-0.7727,-0.7611,-0.7611,-0.761,-0.761,0,-0.7787,-0.7792,-0.7811,-0.7792,-0.779,-0.7806,-0.7768,-0.7771,-0.7744,-0.7722,-0.7737,-0.7716,-0.7708,-0.7712,-0.7686,-0.773,-0.7717,-0.7688,-0.7646,-0.771,-0.7731,-0.774,-0.7617,-0.7616,-0.7615,-0.7614,0,0,-0.7907,-0.7865,-0.7873,-0.7863,-0.7836,-0.784,-0.7854,-0.7846,-0.7849,-0.7837,-0.7847,-0.7849,-0.7821,-0.7814,-0.7787,-0.7802,-0.7858,-0.7769,-0.7768,-0.7787,-0.7905,-0.7928,-0.7939,-0.7837,-0.7838,-0.784,-0.7906,0,-0.7976,-0.7996,-0.796,-0.7989,-0.7994,-0.7945,-0.7957,-0.7942,-0.7921,-0.7922,-0.79,-0.7902,-0.7864,-0.786,-0.7872,-0.7849,-0.7882,-0.7844,-0.7846,-0.7847,-0.7852,-0.795,-0.7974,-0.8038,-0.7914,-0.7916,-0.7917,0,-0.806,-0.8051,-0.808,-0.8051,-0.8051,-0.8063,-0.8052,-0.8054,-0.8036,-0.802,-0.8013,-0.798,-0.7992,-0.7952,-0.7967,-0.7942,-0.7941,-0.793,-0.7931,-0.793,-0.7886,-0.7951,-0.8057,-0.8067,-0.7929,-0.7928,-0.7927,0,-0.8144,-0.814,-0.8156,-0.815,-0.8116,-0.8125,-0.8112,-0.8092,-0.8089,-0.8081,-0.8078,-0.8072,-0.8068,-0.8063,-0.803,-0.8004,-0.8049,-0.8006,-0.8036,-0.8037,-0.8048,-0.8048,-0.8156,-0.8048,-0.8048,-0.8048,-0.8048,0,-0.8225,-0.8245,-0.8194,-0.8204,-0.8225,-0.8184,-0.8205,-0.8187,-0.8169,-0.8176,-0.8133,-0.814,-0.8095,-0.8097,-0.8071,-0.8088,-0.8087,-0.8074,-0.8067,-0.8078,-0.8079,-0.8077,-0.8071,-0.805,-0.805,-0.8049,-0.8049,0,-0.8323,-0.829,-0.8305,-0.8271,-0.8263,-0.828,-0.8252,-0.826,-0.8236,-0.8245,-0.8244,-0.8208,-0.8208,-0.8174,-0.8167,-0.815,-0.8177,-0.8162,-0.8183,-0.8178,-0.821,-0.8208,-0.832,-0.8333,-0.8217,-0.8218,-0.8219,0,-0.8377,-0.8391,-0.8359,-0.836,-0.8348,-0.835,-0.8347,-0.8307,-0.8305,-0.8285,-0.8296,-0.8293,-0.8288,-0.829,-0.8263,-0.8258,-0.8242,-0.8282,-0.8241,-0.8251,-0.8242,-0.8242,-0.8243,-0.8291,-0.8292,-0.8293,-0.8294,0,-0.8476,-0.8459,-0.8456,-0.8447,-0.8444,-0.8436,-0.8424,-0.8427,-0.8383,-0.8384,-0.8383,-0.8379,-0.8372,-0.8369,-0.8358,-0.8345,-0.8312,-0.8307,-0.8314,-0.8325,-0.8337,-0.8331,-0.8207,-0.8305,-0.8304,-0.8303,-0.8302,-0.8302,-0.8554,-0.8564,-0.8542,-0.854,-0.8527,-0.8517,-0.8523,-0.85,-0.8499,-0.8489,-0.8466,-0.8469,-0.845,-0.8432,-0.8421,-0.8423,-0.8403,-0.8413,-0.8416,-0.8419,-0.8425,-0.8336,-0.8421,-0.8421,-0.842,-0.842,-0.842,0,-0.8651,-0.8634,-0.8633,-0.8618,-0.8616,-0.8585,-0.857,-0.8571,-0.8574,-0.8559,-0.8555,-0.8554,-0.855,-0.8523,-0.8517,-0.8523,-0.8508,-0.8523,-0.8522,-0.8519,-0.8443,-0.8438,-0.8535,-0.8535,-0.8535,-0.8535,-0.8535,-0.8535,-0.8701,-0.8716,-0.8696,-0.8704,-0.8687,-0.8689,-0.8684,-0.8675,-0.8662,-0.8663,-0.866,-0.8641,-0.8621,-0.8613,-0.8609,-0.86,-0.86,-0.862,-0.8607,-0.8536,-0.8525,-0.8514,-0.8509,-0.862,-0.862,-0.8683,-0.8684,-0.8684]},{"header":{"parameterUnit":"m.s-1","parameterCategory":1,"la1":30.2991,"la2":30.254,"lo1":-89.0895,"lo2":-89.0444,"dy":0.0017,"dx":0.0017,"nx":28,"ny":28,"refTime":"2025-12-23T09:00:00:Z","depth":0,"parameterNumber":3,"parameterNumberName":"V-component_of_WINDS"},"data":[0,0,0,0,0,0,0,0,0,0,0,0,0,0,0,0,0,0,0,0,0,0,0,0,0,0,0,0,0,0,0,0,0,0,0,0,0,0,0,0,0,0,0,0,0,0,0,0,0,0,0,0,0,0,0,0,0,0,-0.769,-0.7691,0,-0.77,-0.77,-0.77,-0.7679,-0.7678,-0.7677,-0.7677,-0.7688,-0.7689,-0.769,0,0,0,0,0,0,0,0,0,0,0,0,0,-0.7656,-0.7656,-0.769,-0.7691,-0.7691,-0.77,-0.77,-0.77,-0.7679,-0.7678,-0.7677,-0.7676,-0.7688,-0.7689,-0.769,0,0,0,0,0,0,0,0,0,0,0,0,0,-0.7668,-0.7657,-0.769,-0.7681,-0.768,-0.77,-0.77,-0.77,-0.7679,-0.7678,-0.7677,-0.7676,-0.7687,-0.7689,-0.769,-0.7719,0,0,-0.7694,-0.7695,0,0,0,0,0,0,0,0,-0.7668,-0.767,-0.7682,-0.7682,-0.7681,-0.7687,-0.7692,-0.7706,-0.7679,-0.768,-0.7677,-0.7676,-0.7689,-0.769,-0.7694,-0.772,-0.772,-0.7694,-0.7695,-0.7696,-0.7696,0,0,0,0,0,0,0,-0.7667,-0.7669,-0.7694,-0.7683,-0.7682,-0.7677,-0.7678,-0.7694,-0.769,-0.768,-0.7678,-0.7679,-0.7688,-0.7693,-0.7694,-0.772,-0.7694,-0.7696,-0.7697,-0.7697,-0.7769,-0.777,0,0,0,0,0,0,-0.7667,-0.7669,-0.7694,-0.7694,-0.7672,-0.7678,-0.7679,-0.7686,-0.769,-0.7689,-0.768,-0.7678,-0.7691,-0.7692,-0.7694,-0.7728,-0.7696,-0.7697,-0.7698,-0.7768,-0.7769,-0.777,0,0,0,0,0,0,-0.7666,-0.7669,-0.7693,-0.7681,-0.7684,-0.768,-0.7688,-0.7687,-0.7691,-0.769,-0.7689,-0.7686,-0.769,-0.7692,-0.7713,-0.7728,-0.7698,-0.7699,-0.7767,-0.7768,-0.777,-0.7796,0,0,0,0,0,0,-0.7665,-0.7669,-0.768,-0.7681,-0.7684,-0.7712,-0.7689,-0.7688,-0.7694,-0.7691,-0.7695,-0.7694,-0.7689,-0.7711,-0.7714,-0.7729,-0.77,-0.7765,-0.7767,-0.7769,-0.7793,-0.7798,-0.7802,0,0,0,0,0,-0.7664,-0.7688,-0.7681,-0.7684,-0.7698,-0.7713,-0.7714,-0.7707,-0.7695,-0.7706,-0.7705,-0.7694,-0.7726,-0.7713,-0.7717,-0.7732,-0.7764,-0.7767,-0.7769,-0.7791,-0.7797,-0.7802,0,0,0,0,0,0,-0.769,-0.7688,-0.768,-0.7705,-0.7709,-0.7709,-0.7723,-0.7714,-0.7722,-0.7719,-0.7711,-0.7712,-0.7734,-0.7735,-0.7721,-0.776,-0.7743,-0.7746,-0.7759,-0.7764,-0.7768,-0.7767,-0.7701,0,0,0,0,0,-0.7698,-0.7709,-0.7707,-0.7729,-0.7732,-0.7727,-0.7733,-0.7727,-0.7731,-0.7733,-0.7733,-0.7738,-0.7749,-0.7756,-0.7766,-0.7793,-0.7793,-0.7806,-0.781,-0.7813,-0.7816,-0.783,-0.7835,-0.7778,-0.7778,-0.7778,0,0,-0.7716,-0.7716,-0.7724,-0.7734,-0.7737,-0.7749,-0.7728,-0.7743,-0.7752,-0.7735,-0.7754,-0.7755,-0.7759,-0.7783,-0.7793,-0.7785,-0.7832,-0.7816,-0.7819,-0.782,-0.7833,-0.7838,-0.7843,-0.778,-0.778,-0.7779,0,0,-0.7754,-0.7755,-0.7773,-0.7776,-0.7779,-0.7776,-0.778,-0.7781,-0.778,-0.7799,-0.7786,-0.7797,-0.7816,-0.782,-0.7824,-0.7862,-0.7852,-0.7865,-0.7887,-0.79,-0.7905,-0.7909,-0.7922,-0.7927,-0.7868,-0.7868,-0.7868,0,-0.7776,-0.7793,-0.7784,-0.7798,-0.7803,-0.7788,-0.7806,-0.7809,-0.7816,-0.7819,-0.7809,-0.7832,-0.7834,-0.7857,-0.7866,-0.7871,-0.7875,-0.7865,-0.7905,-0.7909,-0.7912,-0.7925,-0.793,-0.787,-0.787,-0.7869,-0.7869,0,-0.7819,-0.7832,-0.7846,-0.7851,-0.7858,-0.7874,-0.7867,-0.7875,-0.7868,-0.7865,-0.7884,-0.7886,-0.7895,-0.79,-0.7894,-0.7923,-0.7917,-0.7906,-0.7889,-0.7919,-0.7931,-0.7936,-0.7872,-0.7871,-0.7871,-0.7871,0,0,-0.7876,-0.7874,-0.788,-0.7882,-0.7884,-0.7893,-0.7908,-0.7917,-0.7923,-0.7928,-0.794,-0.7956,-0.7945,-0.795,-0.7944,-0.7956,-0.7985,-0.7943,-0.7943,-0.7951,-0.8016,-0.8024,-0.803,-0.7978,-0.7979,-0.798,-0.8015,0,-0.7913,-0.7938,-0.793,-0.7956,-0.7967,-0.7951,-0.7964,-0.7967,-0.7965,-0.7974,-0.7971,-0.7982,-0.7967,-0.797,-0.7981,-0.7979,-0.7998,-0.7976,-0.799,-0.799,-0.7989,-0.8036,-0.8045,-0.8079,-0.802,-0.802,-0.8021,0,-0.7961,-0.7966,-0.7993,-0.7991,-0.7996,-0.8008,-0.8014,-0.8023,-0.8025,-0.8022,-0.8027,-0.8018,-0.8033,-0.8015,-0.8035,-0.8021,-0.8025,-0.8025,-0.8026,-0.8028,-0.8008,-0.8038,-0.8089,-0.8094,-0.8028,-0.8027,-0.8027,0,-0.7998,-0.8012,-0.803,-0.8032,-0.8031,-0.804,-0.804,-0.8041,-0.8046,-0.8052,-0.8055,-0.8062,-0.8067,-0.8073,-0.8066,-0.8054,-0.8087,-0.8069,-0.8085,-0.8086,-0.8094,-0.8093,-0.8146,-0.8097,-0.8097,-0.8096,-0.8096,0,-0.8042,-0.8058,-0.8047,-0.8058,-0.8076,-0.8065,-0.8084,-0.8082,-0.8083,-0.8094,-0.8081,-0.8091,-0.8081,-0.809,-0.8085,-0.8102,-0.8105,-0.8103,-0.8101,-0.8104,-0.8104,-0.8108,-0.8105,-0.8098,-0.8098,-0.8097,-0.8097,0,-0.8087,-0.808,-0.8098,-0.8095,-0.8094,-0.8108,-0.8106,-0.8115,-0.8111,-0.8125,-0.8127,-0.8121,-0.8131,-0.8125,-0.8135,-0.8131,-0.8154,-0.8149,-0.8153,-0.8152,-0.8169,-0.8167,-0.8225,-0.8232,-0.8179,-0.8179,-0.8179,0,-0.8115,-0.8128,-0.8125,-0.8131,-0.8131,-0.8141,-0.8145,-0.8135,-0.8141,-0.8143,-0.8153,-0.8162,-0.8168,-0.8184,-0.8181,-0.8189,-0.8184,-0.8204,-0.8186,-0.8188,-0.8184,-0.8184,-0.8185,-0.8208,-0.8209,-0.8209,-0.821,0,-0.8166,-0.8161,-0.8168,-0.8173,-0.8179,-0.8183,-0.8186,-0.8191,-0.8181,-0.8188,-0.8197,-0.8202,-0.8212,-0.822,-0.8226,-0.8227,-0.8217,-0.8215,-0.822,-0.8223,-0.8224,-0.8224,-0.8163,-0.8214,-0.8214,-0.8214,-0.8213,-0.8213,-0.8204,-0.8213,-0.8213,-0.8221,-0.8221,-0.8224,-0.8233,-0.8229,-0.8237,-0.8243,-0.8237,-0.8248,-0.8249,-0.8256,-0.8257,-0.8266,-0.8258,-0.8264,-0.8266,-0.8268,-0.827,-0.8223,-0.8267,-0.8267,-0.8267,-0.8267,-0.8267,0,-0.8253,-0.8252,-0.8259,-0.8263,-0.8269,-0.8257,-0.826,-0.8265,-0.8275,-0.8277,-0.8282,-0.8293,-0.8301,-0.8297,-0.8304,-0.8312,-0.8307,-0.8314,-0.8314,-0.8314,-0.8277,-0.8272,-0.8318,-0.8318,-0.8318,-0.8318,-0.8318,-0.8318,-0.828,-0.8296,-0.8291,-0.8307,-0.8305,-0.8315,-0.8317,-0.832,-0.832,-0.8332,-0.8338,-0.8336,-0.8335,-0.8342,-0.8348,-0.8347,-0.835,-0.8359,-0.8356,-0.8322,-0.8317,-0.8312,-0.8308,-0.8359,-0.8359,-0.8392,-0.8392,-0.8393]}]]